Regional Weather Roundup
Issued by NWS

Home | Current Version | Previous Version | Graphics & Text | Print | Product List | Glossary On
Versions: 1 2 3 4 5 6 7 8 9 10 11 12 13 14 15 16 17 18 19 20 21 22 23 24 25 26 27 28 29 30 31 32 33 34 35 36 37 38 39 40 41 42 43 44 45 46 47 48 49 50
000
ASUS45 KABQ 270810
RWRNM
NEW MEXICO REGIONAL WEATHER ROUNDUP
NATIONAL WEATHER SERVICE ALBUQUERQUE NM
200 AM MDT TUE JUN 27 2017

NOTE: "FAIR" MEANS FEW OR NO CLOUDS BELOW 12,000 FEET AGL WITH NO
       SIGNIFICANT WEATHER OR OBSTRUCTIONS TO VISION.

      THIS PRODUCT IS RELEASED AS TWO VERSIONS.  ONE VERSION NEAR
      THE TOP OF THE HOUR CONTAINING PRELIMINARY DATA FROM ALBUQUERQUE
      AND OTHER STATIONS.  A FINAL VERSION WITH ADDITIONAL DATA IS
      ISSUED ABOUT 10 MINUTES AFTER THE HOUR.

NMZ501-503-504-510>518-270900-
NORTHWEST PLATEAU/NORTHCENTRAL MOUNTAINS

CITY           SKY/WX    TMP DP  RH WIND       PRES   REMARKS
FARMINGTON     FAIR      72  42  34 NE7G20    30.09R
LOS ALAMOS     FAIR      57  45  62 S9        30.32R
SANTA FE       FAIR      58  48  69 E5        30.27F
TAOS           FAIR      61  34  36 CALM      30.32R
ANGEL FIRE     FAIR      42  40  93 CALM      30.42F

$$
NMZ402-403-502-505>509-270900-
WESTCENTRAL MOUNTAINS/SOUTHWEST MOUNTAINS

CITY           SKY/WX    TMP DP  RH WIND       PRES   REMARKS
GALLUP         FAIR      68  41  37 S12       30.21S
GRANTS         FAIR      64  45  49 S9        30.27F
SILVER CITY    FAIR      63  56  78 NW6       30.21F

$$
NMZ407-409-411-412-270900-
SOUTHERN DESERTS

CITY           SKY/WX    TMP DP  RH WIND       PRES   REMARKS
DEMING         FAIR      75  50  41 E13       30.14S
LAS CRUCES     FAIR      74  53  47 SE13      30.16S
HOLLOMAN AFB   FAIR      68  52  56 S7        30.16R
ALAMOGORDO     FAIR      72  54  53 S10       30.16R
T OR C         FAIR      67  52  58 NW6       30.17F

$$
NMZ519>523-270900-
CENTRAL VALLEYS/CENTRAL HIGHLANDS

CITY           SKY/WX    TMP DP  RH WIND       PRES   REMARKS
ALBUQUERQUE    MOCLDY    68  48  48 CALM      30.21F
DOUBLE EAGLE   FAIR      61  44  53 CALM      30.24F
MORIARTY ARPT  FAIR      54  52  94 CALM      30.29S
CLINES CORNERS FAIR      55  45  68 N5        30.32F
BELEN          FAIR      66  46  46 CALM      30.18F
SOCORRO        FAIR      66  49  53 SW8       30.16F

$$
NMZ524>526-539-540-270900-
SOUTHCENTRAL MOUNTAINS

CITY           SKY/WX    TMP DP  RH WIND       PRES   REMARKS
RUIDOSO        FAIR      52  50  93 SW8       30.33S

$$
NMZ527>531-270900-
NORTHEAST HIGHLANDS/NORTHEAST PLAINS

CITY           SKY/WX    TMP DP  RH WIND       PRES   REMARKS
LAS VEGAS      FAIR      53  46  77 NE6       30.31F
RATON          FAIR      58  47  66 W6        30.28S
CLAYTON        FAIR      63  57  81 W15       30.15F

$$
NMZ532>537-270900-
EASTCENTRAL PLAINS

CITY           SKY/WX    TMP DP  RH WIND       PRES   REMARKS
SANTA ROSA     FAIR      60  50  70 E10       30.19S
TUCUMCARI      CLOUDY    70  59  68 VRB6      30.16R
CANNON AFB     FAIR      64  64 100 E3        30.20S
CLOVIS AIRPORT FAIR      63  60  90 SW5       30.20S

$$
NMZ028-029-538-270900-
SOUTHEAST PLAINS

CITY           SKY/WX    TMP DP  RH WIND       PRES   REMARKS
ROSWELL        FAIR      66  59  78 SW10      30.12F
ARTESIA        MOCLDY    66  66 100 SW10      30.13F
CARLSBAD       MOCLDY    67  65  93 SW10      30.12F
HOBBS          FAIR      66  66 100 CALM      30.17S


$$




USA.gov is the U.S. government's official web portal to all federal, state and local government web resources and services.